Hourly Data Report for June 15, 2021

BORDEN AWOS
ONTARIO
Current Station Operator: DND

44°16'20.000" N
79°54'42.000" W
222.50 m
611B002
71534
YBN

Download Data

Hourly Data (June 2021)
Hourly Data Report for June 15, 2021
TIME
LST
Temp Definition
°C
Dew Point Definition
°C
Rel Hum Definition
%
Precip. Amount Definition
mm

Wind Dir Definition
10's deg

Wind Spd Definition
km/h
Visibility Definition
km
Stn Press Definition
kPa
Hmdx Definition


Wind Chill Definition


Weather Definition


00:00 15.6 13.1 85   35 7 14.5 98.46     LegendNANA
01:00 15.2 13.4 89   30 13 14.5 98.45     Drizzle
02:00 15.4 12.4 82   33 11 14.5 98.45     Rain
03:00 14.6 12.4 87   30 15 14.5 98.44     LegendNANA
04:00 14.3 11.6 84   32 9 14.5 98.47     LegendNANA
05:00 13.4 10.9 85   32 9 14.5 98.51     LegendNANA
06:00 14.3 10.4 77   31 13 14.5 98.57     LegendNANA
07:00 15.2 8.1 63   32 15 14.5 98.59     LegendNANA
08:00 14.9 6.6 58   32 30 14.5 98.63     LegendNANA
09:00 15.3 5.3 51   32 30 14.5 98.68     LegendNANA
10:00 16.0 4.2 45   35 30 14.5 98.69     LegendNANA
11:00 16.5 4.2 44   32 28 14.5 98.76     LegendNANA
12:00 17.7 4.0 40   34 30 14.5 98.72     LegendNANA
13:00 17.3 4.1 42   31 30 14.5 98.75     LegendNANA
14:00 18.6 2.7 35   33 28 14.5 98.77     LegendNANA
15:00 18.8 1.2 31   31 28 14.5 98.77     LegendNANA
16:00 18.9 0.6 29   33 30 14.5 98.79     LegendNANA
17:00 19.2 0.6 29   33 20 14.5 98.82     LegendNANA
18:00 18.8 0.4 29   33 24 14.5 98.81     LegendNANA
19:00 17.9 1.1 32   32 17 14.5 98.82     LegendNANA
20:00 15.4 4.1 47   33 13 14.5 98.85     LegendNANA
21:00 13.9 5.9 59   33 11 14.5 98.90     LegendNANA
22:00 12.8 6.8 67   33 9 14.5 98.89     LegendNANA
23:00 12.1 5.3 63   35 4 14.5 98.94     LegendNANA

Notes on Data Quality.

Legend

  • E = Estimated
  • M = Missing
  • NA = Not Available*
  • [empty] = Indicates an unobserved value
Date modified: